OCN8CV LPMA-EDDF

Flight info

Callsign OCN8CV
Flight time N/A
Altitude 36000
Route DEGUN1E DEGUN DCT RULET DCT GALPA DCT TOSDI DCT ZMR DCT NUBLO DCT RONSI DCT DELOG DCT PEXOD DCT DIDIG DCT TIRAV DCT ERJAZ DCT PIWIZ DCT TSU DCT OQQAL DCT RANUX/N0452F370 DCT VALEK DCT LIPNI UN858 LIMGO Z111 TUTOV/N0416F230 Z111 RAMOB IMCOM1A
Aircraft A320/M-SDE3FGHIRWY/LB1

Departure

Time 2026-05-07 13:44
Airport Cristiano Ronaldo International Airport (LPMA)

Arrival

Time N/A
Airport Frankfurt Main Airport (EDDF)
Time Latitude Longitude Altitude Speed Heading
2026-05-07 13:22 32.69335 -16.77699 177 ft 0 kts 138°
2026-05-07 13:36 32.69343 -16.77707 176 ft 4 kts 141°
2026-05-07 13:37 32.69365 -16.77725 176 ft 4 kts 156°
2026-05-07 13:37 32.69389 -16.77731 176 ft 4 kts 201°
2026-05-07 13:37 32.69398 -16.77725 176 ft 0 kts 226°
2026-05-07 13:40 32.69397 -16.77726 176 ft 1 kts 226°
2026-05-07 13:40 32.69379 -16.77748 176 ft 11 kts 226°
2026-05-07 13:41 32.69311 -16.77832 176 ft 15 kts 229°
2026-05-07 13:41 32.69288 -16.77942 176 ft 13 kts 266°
2026-05-07 13:41 32.69278 -16.78042 176 ft 11 kts 242°
2026-05-07 13:41 32.69228 -16.78102 176 ft 9 kts 224°
2026-05-07 13:42 32.69171 -16.78168 176 ft 15 kts 224°
2026-05-07 13:42 32.69083 -16.78271 176 ft 22 kts 225°
2026-05-07 13:42 32.68981 -16.78382 176 ft 16 kts 206°
2026-05-07 13:42 32.68895 -16.78423 176 ft 8 kts 228°
2026-05-07 13:43 32.68908 -16.78465 176 ft 5 kts 346°
2026-05-07 13:43 32.68933 -16.78447 176 ft 3 kts 46°
2026-05-07 13:43 32.68966 -16.78407 176 ft 29 kts 45°
2026-05-07 13:43 32.69326 -16.77987 176 ft 112 kts 45°
2026-05-07 13:44 32.70038 -16.77145 302 ft 166 kts 46°
2026-05-07 13:44 32.70819 -16.76101 1078 ft 176 kts 61°
2026-05-07 13:44 32.71057 -16.74650 1753 ft 190 kts 102°
2026-05-07 13:44 32.70648 -16.73104 2133 ft 205 kts 111°
2026-05-07 13:45 32.70114 -16.71425 2402 ft 230 kts 112°
2026-05-07 13:45 32.69509 -16.69555 2805 ft 255 kts 112°
2026-05-07 13:45 32.68864 -16.67541 3484 ft 265 kts 111°
2026-05-07 13:45 32.68273 -16.65674 4307 ft 269 kts 111°
2026-05-07 13:46 32.67614 -16.63572 5178 ft 275 kts 111°
2026-05-07 13:46 32.66943 -16.61417 5982 ft 281 kts 110°
2026-05-07 13:46 32.66266 -16.59219 6734 ft 286 kts 108°
2026-05-07 13:46 32.65899 -16.56884 7452 ft 291 kts 90°
2026-05-07 13:47 32.66150 -16.54538 8167 ft 295 kts 72°
2026-05-07 13:47 32.67024 -16.52330 8881 ft 298 kts 52°
2026-05-07 13:47 32.68414 -16.50513 9594 ft 300 kts 40°
2026-05-07 13:47 32.69943 -16.48791 10261 ft 307 kts 40°
2026-05-07 13:48 32.71554 -16.46979 10477 ft 331 kts 40°
2026-05-07 13:48 32.73279 -16.45028 10637 ft 354 kts 41°
2026-05-07 13:48 32.75118 -16.42936 10762 ft 376 kts 41°
2026-05-07 13:48 32.77036 -16.40747 11180 ft 387 kts 41°
2026-05-07 13:49 32.78992 -16.38505 11733 ft 394 kts 41°
2026-05-07 13:49 32.80980 -16.36223 12324 ft 400 kts 41°
2026-05-07 13:49 32.82997 -16.33905 12883 ft 406 kts 41°
2026-05-07 13:49 32.85044 -16.31554 13481 ft 412 kts 41°
2026-05-07 13:50 32.87122 -16.29165 14009 ft 418 kts 41°
2026-05-07 13:50 32.89230 -16.26741 14483 ft 425 kts 41°
2026-05-07 13:50 32.91373 -16.24284 14950 ft 431 kts 41°
2026-05-07 13:50 32.93541 -16.21797 15452 ft 435 kts 41°
2026-05-07 13:51 32.95734 -16.19282 15924 ft 439 kts 41°
2026-05-07 13:51 32.97944 -16.16745 16408 ft 444 kts 41°
2026-05-07 13:51 33.00176 -16.14182 16883 ft 448 kts 41°
2026-05-07 13:51 33.02425 -16.11593 17356 ft 452 kts 41°
2026-05-07 13:52 33.04697 -16.08974 17813 ft 456 kts 41°
2026-05-07 13:52 33.06988 -16.06333 18294 ft 460 kts 41°
2026-05-07 13:52 33.09297 -16.03672 18693 ft 464 kts 41°